Regional Weather Roundup
Issued by NWS

Home | Current Version | Previous Version | Graphics & Text | Print | Product List | Glossary On
Versions: 1 2 3 4 5 6 7 8 9 10 11 12 13 14 15 16 17 18 19 20 21 22 23 24 25 26 27 28 29 30 31 32 33 34 35 36 37 38 39 40 41 42 43 44 45 46 47 48 49 50
000
ASUS43 KIND 282309
RWRIN

WEATHER ROUNDUP FOR INDIANA
NATIONAL WEATHER SERVICE INDIANAPOLIS IN
700 PM EDT FRI AUG 28 2015

NOTE: "FAIR" INDICATES FEW OR NO CLOUDS BELOW 12,000 FEET WITH NO
SIGNIFICANT WEATHER AND/OR OBSTRUCTIONS TO VISIBILITY.

* - STATION DOES NOT REPORT WEATHER SUCH AS PRECIPITATION OR FOG.

+ - STATION NOT QUALITY CONTROLLED BY THE NATIONAL WEATHER SERVICE.
    USE DATA WITH CAUTION...ESPECIALLY DEWPOINT AND RELATIVE
    HUMIDITY OBSERVATIONS.

INZ001>003-010>013-019-020-290000-
NORTHWEST INDIANA

CITY           SKY/WX    TMP DP  RH WIND       PRES   REMARKS
GARY /AIRPORT/ CLOUDY    73  63  68 VRB5      30.08F
KNOX *+        CLOUDY    72  61  68 CALM      30.09S
LA PORTE +     CLOUDY    73  70  89 CALM      30.10F
MICHIGAN CITY+ CLOUDY    70  63  78 CALM      30.10S
MONTICELLO +   PTSUNNY   75  60  59 CALM      30.08F
RENSSELAER +   CLOUDY    73  63  68 SE5       30.08F
VALPARAISO     CLOUDY    73  63  70 CALM      30.09F

$$

LMZ046-743>745-290000-
SOUTHERN LAKE MICHIGAN

STATION/POSITION TIME  TEMP    WIND        PRES    WAVE
                       AIR SEA DIR/SP/G            HT
                 (UTC) (F)     (DEG/KT/KT) (MB)    (FT)
BURNS HARBOR     2200   72      40/  6/  6 1019.3S
MICHIGAN CITY    2200   70      20/  3/  4   N/A
5NW MICH CITY    2300   71 71   70/  6/  6   N/A     0

$$

INZ004-005-014>016-021>024-290000-
NORTH CENTRAL INDIANA

CITY           SKY/WX    TMP DP  RH WIND       PRES   REMARKS
ELKHART        CLOUDY    75  59  57 CALM      30.11S
GOSHEN         CLOUDY    75  61  61 SE6       30.10F
LOGANSPORT +   PTSUNNY   73  55  53 SE5       30.10F
PERU/GRISSOM   PTSUNNY   75  60  59 SE5       30.09F
ROCHESTER +    CLOUDY    77  61  57 SE5       30.11S
SOUTH BEND     CLOUDY    74  61  63 SW3       30.11R
WARSAW +       CLOUDY    73  59  60 CALM      30.11S

$$

INZ006>009-017-018-025>027-290000-
NORTHEAST INDIANA

CITY           SKY/WX    TMP DP  RH WIND       PRES   REMARKS
ANGOLA *+      SUNNY     73  66  78 CALM      30.12F
AUBURN +       CLOUDY    73  59  60 CALM      30.13S
FORT WAYNE     CLOUDY    73  60  63 SE5       30.12F
HUNTINGTON +   CLOUDY    74  53  46 CALM      30.12S

$$

INZ028-029-035-036-043>045-051>053-290000-
WEST CENTRAL INDIANA

CITY           SKY/WX    TMP DP  RH WIND       PRES   REMARKS
CRAWFORDSVL +  MOSUNNY   74  52  47 SE5       30.09S
GREENCASTLE +  SUNNY     72  55  56 SE6       30.10S
LAFAYETTE      PTSUNNY   76  57  51 SE6       30.08S
TERRE HAUTE    MOSUNNY   78  57  48 SE9       30.08S

$$

INZ030>032-037>040-046>048-054>057-064-065-290000-
CENTRAL INDIANA

CITY           SKY/WX    TMP DP  RH WIND       PRES   REMARKS
COLUMBUS       SUNNY     77  52  41 SE6       30.11F
FRANKFORT +    MOSUNNY   72  61  67 E6        30.11F
GREENWOOD *+   MOSUNNY   75  52  43 SE7       30.11S
INDIANAPOLIS   PTSUNNY   76  55  48 SE9       30.09S
-EAGLE CREEK   SUNNY     76  55  48 SE7       30.09F
KOKOMO *+      PTSUNNY   73  59  60 SE6       30.11S
MARION +       PTSUNNY   75  47  36 SE5       30.12S
MT COMFORT *+  PTSUNNY   75  50  41 SE6       30.11F
SHELBYVILLE    MOSUNNY   77  57  50 SE7       30.10F
ZIONSVILLE +   SUNNY     75  56  50 SE5       30.11S

$$

INZ033-034-041-042-049-050-058-059-290000-
EAST CENTRAL INDIANA

CITY           SKY/WX    TMP DP  RH WIND       PRES   REMARKS
MUNCIE         PTSUNNY   74  57  55 SE7       30.12S

$$

INZ060-061-067>069-081>083-085>088-290000-
SOUTHWEST INDIANA

CITY           SKY/WX    TMP DP  RH WIND       PRES   REMARKS
EVANSVILLE     SUNNY     81  61  50 S3        30.05F
HUNTINGBURG *+ SUNNY     81  61  50 S5        30.07S
WASHINGTON +   SUNNY     78  52  40 S3        30.06S

$$

INZ062-063-066-070>080-084-089>092-290000-
SOUTH CENTRAL AND SOUTHEAST INDIANA

CITY           SKY/WX    TMP DP  RH WIND       PRES   REMARKS
BLOOMINGTON    MOSUNNY   76  59  55 E6        30.09F
MADISON *+     MOSUNNY   79  54  41 CALM      30.12F
NORTH VERNON + MOSUNNY   79  57  47 CALM      30.11F
SEYMOUR +      MOSUNNY   81  57  44 SE3       30.08F

$$



USA.gov is the U.S. government's official web portal to all federal, state and local government web resources and services.